RH
69 67 64 70 70 75 88 85 67 64 62 61 64 66 68 71 70 73 74 57 54 57 58 80 88 79 77 69 74 47 46 39 31 33 33 32 27 30 32 34 34 32 36 36 34 38 34
68 66 72 73 82 81 84 84 67 64 64 64 64 67 66 71 73 79 79 59 60 58 55 86 88 91 80 89 57 36 32 32 34 34 36 31 29 30 33 37 32 37 40 34 36 32 35
66 70 72 73 74 76 76 70 68 67 66 65 65 67 65 70 72 87 67 60 64 65 74 87 90 89 82 90 53 34 36 39 38 32 38 38 31 30 30 39 42 38 29 29 32 34 34
68 69 68 71 72 71 70 68 67 65 67 67 67 67 67 68 76 72 62 62 61 69 75 88 92 91 94 75 48 34 33 40 38 38 41 40 34 42 39 36 30 29 27 19 28 37 40
70 68 71 69 65 66 64 64 65 66 66 67 68 67 68 70 70 69 69 70 67 70 83 85 88 74 92 59 44 37 33 42 41 41 40 36 41 44 38 32 31 25 18 24 26 40 41
70 68 70 69 62 63 63 62 62 62 64 65 68 70 72 73 78 78 74 71 77 84 85 77 84 79 83 70 47 43 38 39 43 45 46 47 46 46 39 52 56 23 26 33 36 36 43
70 72 71 68 66 63 64 64 64 64 66 69 70 71 70 76 78 76 78 90 76 91 81 88 82 81 75 51 40 44 42 39 41 44 48 53 76 63 52 38 41 47 50 50 35 42 54
64 68 72 71 71 66 68 67 68 68 70 70 71 70 69 76 75 75 79 81 95 85 97 67 63 62 45 42 51 47 39 44 47 55 52 55 73 52 52 55 56 57 59 49 45 48 54
65 65 64 66 66 64 66 69 71 73 74 74 71 68 69 70 72 77 87 97 86 79 95 88 59 56 54 45 58 56 48 48 50 58 54 48 54 52 53 61 67 62 71 59 70 57 46
70 69 67 67 68 69 70 70 71 73 77 73 76 74 70 67 71 83 90 86 82 85 95 98 70 52 51 52 57 51 51 54 52 64 62 59 56 56 58 62 63 73 54 59 70 81 79
73 74 74 73 72 71 70 71 72 74 75 76 71 76 76 67 74 83 83 76 75 82 89 94 70 47 54 55 54 51 52 50 56 58 57 68 62 64 69 76 56 60 58 63 71 86 84
72 73 73 74 75 77 78 78 77 76 76 74 77 76 68 68 68 73 75 74 72 89 95 86 69 64 58 61 63 56 55 52 58 60 59 61 60 61 59 61 58 56 73 77 76 79 92
74 74 75 74 75 76 77 78 79 80 82 78 74 76 68 68 68 74 71 60 95 92 82 76 67 64 60 64 65 60 64 64 74 93 99 60 59 63 62 69 68 74 82 89 90 95 73
76 76 76 77 77 77 77 78 79 80 82 85 76 71 74 61 68 74 63 64 90 82 75 67 61 61 67 66 64 67 64 65 60 58 77 86 84 61 65 64 62 60 66 87 95 79 68
77 76 78 79 79 79 79 77 79 83 85 83 70 68 64 63 74 67 56 96 94 68 64 64 64 65 75 63 60 60 62 60 57 55 79 92 91 53 62 56 62 68 78 74 94 81 85
75 79 79 78 80 81 80 79 78 85 79 76 74 67 65 67 71 67 78 93 76 63 58 61 60 58 62 65 62 61 66 57 60 56 55 69 97 57 62 64 63 67 71 75 81 88 79
71 74 79 79 82 83 81 82 79 82 76 70 58 62 65 73 74 63 100 83 61 60 56 55 58 57 56 62 61 64 63 58 55 60 53 59 64 59 57 64 60 80 74 72 60 62 72
72 72 76 77 82 83 82 84 82 79 73 59 65 83 69 76 77 81 88 62 73 54 60 59 50 53 54 59 62 63 61 59 51 54 58 62 64 75 57 52 51 54 52 50 53 59 59
75 72 73 77 79 86 84 84 84 79 79 54 69 74 66 71 87 84 67 67 63 60 58 57 56 52 50 56 58 62 59 54 58 56 58 62 67 80 45 50 53 57 54 53 54 60 67
76 74 73 74 76 84 86 88 88 81 78 56 52 86 61 67 68 54 58 63 62 59 58 57 53 52 52 56 56 57 57 59 61 58 70 65 64 64 47 36 42 51 48 55 54 70 45
77 76 74 73 76 81 84 89 87 85 76 57 59 76 69 80 60 61 60 59 60 60 56 55 57 54 51 52 54 54 52 53 65 67 67 63 80 72 63 55 56 59 58 53 65 57 56
81 75 76 75 76 80 84 88 86 85 72 64 56 57 62 58 61 56 64 62 60 60 58 52 54 57 57 52 46 44 50 52 45 62 66 67 82 70 84 48 53 65 55 55 55 53 52
83 77 75 75 76 79 83 88 86 85 68 62 75 62 47 66 60 50 55 61 61 64 58 58 58 55 57 54 54 50 49 53 54 54 58 64 74 81 70 52 53 50 40 45 51 51 50
84 79 74 74 75 78 81 84 85 84 72 62 71 56 44 46 55 51 64 61 59 62 61 57 59 57 50 55 53 56 58 60 59 58 55 62 68 72 85 60 48 31 38 42 46 42 44
82 82 77 73 75 77 81 81 84 80 76 63 71 60 51 37 47 55 62 63 60 60 64 61 55 49 56 53 49 43 36 44 55 67 66 62 61 73 82 66 38 28 45 48 50 37 36
83 82 84 76 73 76 79 81 82 81 80 61 72 77 62 53 42 49 56 60 57 57 58 61 57 56 57 52 49 47 31 32 35 50 66 70 63 72 66 76 42 23 40 44 44 36 30
85 84 85 84 74 74 76 81 81 83 79 68 68 79 65 60 53 56 52 52 59 62 57 62 60 66 61 57 51 45 44 46 40 44 66 74 80 88 75 78 54 37 43 45 43 24 33
90 89 88 86 82 74 74 77 81 81 79 72 73 74 63 62 56 61 58 63 70 63 49 56 58 67 68 65 57 50 55 47 54 44 46 50 61 69 70 80 79 42 53 40 30 34 37
94 92 90 88 88 81 74 75 79 79 81 70 70 69 72 66 58 64 59 58 58 55 54 65 58 59 56 60 61 57 61 60 50 46 48 50 36 33 43 40 34 41 36 38 39 41 42
Wind_Speed
28 28 27 28 25 16 17 15 9 10 9 9 9 8 6 6 4 6 2 3 3 2 4 8 24 16 10 7 6 7 8 5 5 4 4 6 5 4 6 5 4 2 1 2 1 4 7
26 27 28 26 29 25 21 9 14 10 9 9 10 9 5 8 6 6 2 2 2 1 1 14 20 4 9 9 6 5 4 5 6 6 5 2 5 7 9 4 0 2 3 4 2 3 4
27 25 25 24 23 19 14 15 16 15 12 11 10 9 5 7 4 2 3 3 4 1 5 23 18 3 13 7 5 5 8 4 3 5 8 5 6 2 6 6 2 1 3 3 4 2 1
25 24 22 18 19 19 19 18 18 17 16 14 11 9 5 6 7 8 4 4 4 4 7 13 16 1 9 6 5 11 11 12 10 10 11 7 9 11 3 6 3 0 2 3 5 2 3
23 22 19 17 20 20 19 17 17 16 16 15 13 9 6 3 4 6 6 5 5 4 7 10 8 5 11 8 3 5 5 8 8 8 8 6 4 5 3 3 3 2 2 3 2 3 3
23 23 20 17 19 18 17 16 16 15 15 13 12 9 9 8 9 10 14 8 9 11 5 9 1 8 2 2 2 3 4 5 5 1 3 5 4 3 3 1 2 1 2 3 7 2 7
24 21 20 17 17 17 17 15 15 14 14 13 12 10 14 13 7 18 17 7 5 5 12 5 13 25 10 5 2 6 4 2 2 4 4 5 4 6 6 6 6 4 1 6 7 4 10
25 24 23 20 18 17 17 16 14 13 12 12 9 6 13 13 10 13 4 6 5 4 15 16 21 20 7 2 6 8 6 3 4 6 1 4 6 5 8 5 4 1 3 4 8 2 9
23 24 24 22 20 19 18 16 17 17 15 13 9 7 10 7 8 13 14 8 4 5 7 10 10 10 6 6 5 8 6 2 5 6 7 6 6 6 1 3 0 2 3 3 5 13 9
21 21 20 19 19 18 18 18 19 19 18 12 15 8 5 3 10 3 5 4 4 3 6 11 10 8 5 3 5 4 5 3 3 5 4 6 4 3 1 1 4 1 4 3 6 10 6
21 20 18 16 16 15 16 17 18 18 16 15 9 15 14 7 11 2 1 5 5 4 8 9 6 6 6 5 3 4 4 2 5 4 2 3 4 3 3 2 5 4 0 6 8 6 6
20 20 18 19 18 17 14 14 14 15 15 13 13 11 1 5 4 2 3 5 2 1 9 3 5 4 3 4 3 2 3 4 2 3 3 3 0 2 2 1 4 4 5 0 2 1 4
19 20 20 20 19 19 18 16 15 14 12 11 10 10 6 0 2 5 4 1 2 9 1 3 2 1 3 3 2 2 3 4 3 1 4 1 2 1 2 1 1 4 4 2 3 4 3
18 19 20 21 21 21 20 18 16 13 12 11 7 5 4 3 2 2 2 1 12 3 5 2 2 4 3 2 2 2 0 4 3 4 3 3 2 5 6 3 3 1 3 2 5 4 6
17 18 19 21 22 22 21 20 17 15 10 5 3 2 2 4 2 1 2 9 4 2 4 6 3 1 2 3 1 2 4 4 4 2 4 4 1 2 4 1 3 2 2 3 5 4 6
17 17 18 20 22 23 23 22 21 17 11 5 2 1 4 6 2 2 6 8 3 1 4 2 3 3 3 4 3 4 5 2 2 0 1 2 4 1 1 2 4 4 2 3 4 5 6
16 17 18 20 20 22 24 24 22 18 7 4 1 0 5 3 4 7 7 5 5 4 1 1 3 3 4 2 1 1 1 2 3 4 3 2 1 2 3 6 3 5 4 6 4 3 4
16 17 18 20 21 21 22 24 25 21 7 2 1 4 4 3 4 3 3 4 3 4 2 2 1 2 1 3 1 0 0 2 5 5 1 2 3 4 3 2 2 3 5 6 4 2 5
15 16 18 18 20 20 22 23 24 24 13 1 3 1 1 3 5 3 3 3 2 2 2 4 3 2 2 3 2 3 2 1 7 6 3 4 2 4 4 3 3 7 8 6 2 1 9
15 16 16 17 18 19 20 22 22 24 13 2 2 2 3 5 3 4 5 2 3 0 1 0 2 2 4 3 4 3 4 4 8 7 6 6 5 8 7 7 1 8 9 11 10 7 7
11 15 16 16 17 19 21 22 24 23 14 3 4 3 1 3 5 3 2 1 3 3 1 2 2 4 3 4 3 4 4 3 5 5 4 5 6 8 15 20 18 20 19 17 18 19 13
8 11 15 16 17 18 19 20 23 25 10 3 1 3 2 3 2 1 2 1 0 1 2 2 2 1 2 3 4 3 4 4 2 5 5 2 5 4 9 16 13 14 15 16 18 21 21
7 7 11 14 16 17 17 18 20 23 11 3 2 1 2 1 4 2 2 2 2 1 3 1 1 1 3 4 7 7 6 5 2 2 8 4 3 3 6 7 14 13 7 11 8 8 16
10 5 6 10 14 15 16 16 17 19 11 2 2 3 2 3 3 2 5 4 5 4 2 2 4 3 3 4 9 7 7 9 9 10 6 4 3 2 7 12 4 3 1 4 10 11 13
9 11 5 6 10 12 14 15 15 16 14 3 1 2 2 2 2 4 6 4 2 2 4 4 4 1 1 2 4 6 3 3 3 3 9 10 5 5 5 5 15 2 3 1 3 5 4
8 8 8 4 5 8 11 12 13 13 12 3 2 1 1 4 4 1 5 5 3 3 2 4 1 0 1 1 3 3 3 2 1 4 5 7 8 5 2 4 6 3 2 4 3 4 3
8 8 7 5 4 5 7 10 11 11 11 3 2 1 1 3 1 3 4 3 5 3 2 1 2 3 2 4 4 5 3 1 4 4 5 5 5 12 11 8 11 6 5 4 5 4 0
9 8 9 7 5 5 5 7 8 9 9 3 2 2 1 2 5 6 4 3 2 3 3 4 2 3 2 5 4 3 4 3 3 2 5 8 7 7 6 8 11 9 6 7 4 0 2
10 9 9 9 8 6 5 5 6 7 6 2 1 1 1 3 4 2 5 3 2 2 3 3 3 3 3 3 3 1 4 4 5 6 3 7 8 3 10 7 1 10 8 2 1 4 7
Wind_Direction
4 359 356 355 349 342 51 13 59 37 32 39 47 52 66 67 53 125 111 44 92 299 32 92 128 133 91 74 67 360 71 78 74 79 82 115 122 121 126 113 115 102 157 245 229 293 279
10 9 24 24 58 71 78 2 51 43 37 44 53 52 95 77 59 17 357 114 53 230 118 137 124 113 103 86 336 352 94 79 68 105 94 110 126 116 97 91 192 113 242 260 265 244 231
17 35 38 50 60 60 49 44 55 49 46 46 39 48 75 114 105 254 205 117 72 137 111 135 123 225 72 80 353 69 73 52 59 110 99 78 124 115 136 130 126 172 260 205 186 181 187
30 39 36 49 44 42 49 49 50 50 46 44 40 46 56 160 193 228 203 154 121 146 124 119 102 248 74 305 308 92 95 81 74 75 89 84 95 93 48 124 129 334 230 253 130 340 127
46 30 50 38 44 52 51 53 58 54 57 51 50 57 53 28 294 249 192 166 144 171 124 112 75 148 119 285 133 70 94 99 91 83 74 80 65 75 145 147 132 44 278 303 297 43 323
38 33 38 36 47 50 52 47 50 50 47 44 37 38 47 14 334 232 178 157 117 74 83 74 85 86 209 149 58 77 80 88 69 77 96 52 61 104 80 134 159 145 297 284 277 15 307
36 32 35 33 48 49 48 46 40 36 34 29 38 55 37 22 28 78 135 120 98 44 25 50 92 95 107 162 91 53 14 38 43 57 82 42 79 77 89 63 87 108 216 290 292 332 303
41 37 35 35 42 38 40 34 30 27 34 30 48 64 44 45 70 82 92 88 71 151 73 58 80 81 94 89 113 36 8 61 37 82 128 105 85 101 107 101 104 85 317 304 289 308 311
40 43 37 35 37 32 29 32 27 25 25 41 46 65 45 54 81 69 76 60 18 339 79 40 44 59 38 51 53 22 7 41 54 61 47 81 102 145 144 132 120 239 258 344 313 325 284
39 40 40 34 34 28 28 26 24 25 29 42 56 44 61 24 56 41 62 339 353 321 89 13 12 31 22 52 68 359 13 356 60 66 68 75 125 164 174 229 208 303 198 286 312 341 317
22 26 28 26 21 26 18 13 15 23 27 38 41 61 69 63 130 113 218 296 319 232 77 339 7 330 31 40 78 52 358 341 66 84 271 101 153 175 234 209 190 25 238 297 303 286 312
19 19 19 11 8 3 7 5 2 5 17 18 27 37 168 72 96 183 294 290 222 93 68 38 332 19 57 43 42 344 12 54 25 77 47 85 108 257 9 119 223 328 303 278 136 247 249
18 18 18 17 14 10 2 360 358 358 4 9 16 32 58 319 70 359 322 256 61 49 260 85 94 116 81 39 72 17 23 55 45 164 36 270 171 147 218 211 188 236 274 308 232 217 289
13 12 10 11 14 14 8 4 1 1 352 348 3 39 33 40 344 358 269 18 64 48 80 168 183 98 95 350 78 36 204 75 91 21 86 18 178 182 161 268 349 33 360 327 297 298 312
9 8 6 5 6 8 8 6 3 357 356 26 346 15 64 357 292 182 78 55 67 109 131 152 163 110 84 79 29 336 43 37 38 16 38 355 306 117 209 265 292 103 263 40 282 232 268
7 3 4 4 4 1 2 4 4 1 357 42 58 16 18 331 211 210 80 87 93 85 122 180 57 358 66 40 22 16 21 27 55 204 320 77 303 159 107 183 225 272 44 236 209 298 293
9 7 7 7 7 3 358 359 3 5 30 107 45 65 2 350 265 55 72 83 115 170 207 134 112 113 92 92 33 68 57 145 217 175 223 271 57 149 227 203 186 166 216 220 275 240 289
11 9 7 10 6 7 4 357 358 359 3 52 13 53 18 304 54 37 74 127 174 173 183 140 130 90 103 153 127 179 13 282 186 185 151 36 329 280 262 134 324 274 261 236 271 197 254
10 11 7 9 6 4 3 1 357 357 1 312 74 324 76 274 91 73 80 67 347 162 169 160 146 210 176 166 169 223 212 191 189 201 193 159 185 289 186 152 188 225 197 219 208 287 240
2 5 10 10 6 3 2 359 357 358 353 338 110 52 35 55 27 106 134 130 134 106 83 16 100 158 169 172 219 199 220 196 193 204 179 182 209 227 248 273 236 238 225 214 214 234 261
3 358 360 6 6 4 2 0 358 358 358 291 9 89 26 53 53 50 353 127 151 182 216 224 164 233 197 180 197 229 224 215 205 208 189 234 259 234 257 271 271 266 261 245 227 234 250
359 358 356 358 4 5 3 2 2 359 359 69 53 149 148 106 145 142 341 96 280 45 248 186 270 148 253 263 275 263 228 228 255 163 189 228 282 316 284 278 273 263 252 242 242 247 252
343 352 357 354 358 5 5 3 7 11 4 57 19 45 287 85 146 208 171 164 134 221 148 131 52 308 259 274 312 292 271 287 333 222 201 214 269 303 272 321 300 272 252 214 216 228 229
328 327 359 356 355 359 5 6 12 21 36 26 63 302 279 143 222 194 183 196 201 189 219 237 183 194 163 242 257 244 242 246 237 228 227 215 219 259 291 310 273 52 298 248 246 267 228
322 330 333 0 353 354 1 3 9 18 30 62 57 333 324 274 204 199 213 227 215 231 243 249 223 251 114 329 279 295 221 209 165 210 225 221 232 268 275 289 286 216 133 170 250 308 254
312 312 322 325 347 345 355 359 360 12 24 83 72 311 334 309 227 152 170 189 224 215 226 241 290 162 251 230 222 252 276 346 222 159 68 165 227 241 224 272 272 82 171 195 203 227 186
299 302 300 293 301 324 343 353 355 2 21 25 83 29 298 290 202 186 226 209 162 171 239 245 188 187 264 202 221 226 239 236 247 231 171 156 183 222 236 253 272 247 176 154 246 53 101
282 286 280 275 268 281 315 335 344 353 16 21 33 351 316 257 265 203 219 176 149 240 215 128 200 172 171 218 225 201 227 203 249 233 201 196 192 201 199 222 254 148 128 213 18 24 257
269 277 279 270 254 252 265 296 321 340 12 46 311 66 319 237 277 238 245 239 247 275 231 206 321 164 207 202 226 207 220 199 221 265 203 237 220 222 217 225 97 185 242 187 290 291 293